Regional Weather Roundup
Issued by NWS New Orleans/Baton Rouge, LA

Home | Current Version | Previous Version | Text Only | Print | Product List | Glossary On
Versions: 1 2 3 4 5 6 7 8 9 10 11 12 13 14 15 16 17 18 19 20 21 22 23 24 25 26 27 28 29 30 31 32 33 34 35 36 37 38 39 40 41 42 43 44 45 46 47 48 49 50
575
ASUS44 KLIX 281411
RWRLIX
NEW ORLEANS REGIONAL WEATHER ROUNDUP
NATIONAL WEATHER SERVICE NEW ORLEANS LA
900 AM CDT SAT MAR 28 2015

NOTE: "FAIR" INDICATES FEW OR NO CLOUDS BELOW 12,000 FEET WITH NO
      SIGNIFICANT WEATHER AND/OR OBSTRUCTIONS TO VISIBILITY.
      SKY/WX - SKY CONDITION AND SIGNIFICANT WEATHER.
      TMP - AIR TEMPERATURE.     DP    - DEWPOINT TEMPERATURE.
      RH  - RELATIVE HUMIDITY.   PRES  - PRESSURE.
      HI  - HEAT INDEX.          WCI   - WIND CHILL INDEX.

*  THESE STATIONS ARE NOT NWS OR FAA STATIONS AND ARE NOT UNDER
   NWS QUALITY CONTROL.

LAZ038-040-048-061>063-065>067-069-281500-
SOUTHEAST LOUISIANA

CITY           SKY/WX    TMP DP  RH WIND       PRES   REMARKS
N.O. AUDUBON   NOT AVBL
N.O. INTL ARPT MOSUNNY   55  36  48 E9        30.25R
N.O. LAKEFRONT SUNNY     56  39  53 E10       30.25R
SLIDELL        MOSUNNY   50  39  66 E7        30.25R
BATON ROUGE    SUNNY     50  41  71 E6        30.25R
BOOTHVILLE     SUNNY     58  45  62 NE7       30.25R
BELLE CHASSE   MOSUNNY   55  41  59 E5        30.25R
BOGALUSA*        N/A     50  39  65 E6        30.27R
GALLIANO*      SUNNY     59  45  58 CALM      30.25R
NEW ROADS*       N/A     51  37  59 E8        30.26R
GONZALES*        N/A     53  43  69 NE5       30.25R
HAMMOND*       SUNNY     52  37  58 E6        30.27R
HOUMA*         SUNNY     54  46  76 NE7       30.24R
PORT FOURCHON* SUNNY     61  46  59 E9        30.27R

$$

MSZ070-080>082-281500-
SOUTHERN MISSISSIPPI

CITY           SKY/WX    TMP DP  RH WIND       PRES   REMARKS
MCCOMB         SUNNY     47  38  71 SE8       30.24R
GULFPORT       SUNNY     51  37  58 E8        30.25R
BILOXI         SUNNY     49  38  65 E6        30.25R
PASCAGOULA     SUNNY     49  40  71 VRB6      30.26R
STENNIS ARPT*  SUNNY     50  34  53 E6        30.26S

$$

COASTAL OBSERVATIONS
LAKE AND NEARSHORE STATIONS

STATION/POSITION TIME  TEMP    WIND        PRES    WAVE
                       AIR SEA DIR/SP/G            HT/PER
                 (UTC) (F)     (DEG/KT/KT) (MB)    (FT/S)
PASCAGOULA       1300   46      30/  6/ 10 1023.5
WAVELAND YACHT   1300   48 61   70/ 10/ 11 1024.0
GRAND ISLE       1300   58 66   70/  7/ 12 1022.8
SOUTHWEST PASS   1300   58 52   50/ 10/ 12 1023.4
NEW CANAL        1300   52      80/  6/  9 1024.0
SHELL BEACH      1300   54 65   50/ 13/ 15 1023.6

OFFSHORE STATIONS

STATION/POSITION TIME  TEMP    WIND        PRES    WAVE
                       AIR SEA DIR/SP/G            HT/PER
                 (UTC) (F)     (DEG/KT/KT) (MB)    (FT/S)
64 S DAUPHIN ISL 1350   57 71   40/ 10/ 16 1024.0    3/ 5

$$




USA.gov is the U.S. government's official web portal to all federal, state and local government web resources and services.